Cincinnati, OH

5:35 AM EDT on March 30, 2017 (GMT -0400)
Norwood | | Change Station

Elev 620 ft 39.15 °N, 84.45 °W | Updated 4 seconds ago

Partly Cloudy
Partly Cloudy
53.2 °F
Feels Like 53.2 °F
N
2.0
Wind Variable Wind from East

Today
High -- | Low -- °F
--% Chance of Precip.
Yesterday
High -- | Low -- °F
Precip. -- in
Pressure 29.89 in
Visibility 10.0 miles
Clouds Few 10000 ft
Dew Point 44 °F
Humidity 70%
Rainfall 0.00 in
Snow Depth Not available.
7:25 AM 7:59 PM
Waxing Crescent, 7% visible
METAR KLUK 300853Z AUTO 02004KT 10SM FEW100 11/08 A2989 RMK AO2 SLP122 T01110078 58026
Pressure 29.89 in
Visibility 10.0 miles
Clouds Few 10000 ft
Dew Point 44 °F
Humidity 70%
Rainfall 0.00 in
Snow Depth Not available.
7:25 AM 7:59 PM
Waxing Crescent, 7% visible
METAR KLUK 300853Z AUTO 02004KT 10SM FEW100 11/08 A2989 RMK AO2 SLP122 T01110078 58026

Get Severe Weather Alerts

Thanks for signing up!

Be on the lookout for a verification email in your inbox.

You'll start receiving the daily forecast at 8 AM.

×

10-Day Weather Forecast

Almanac

Astronomy

Mar. 30, 2017 Rise Set
Actual Time
Civil Twilight
Nautical Twilight
Astronomical Twilight
Moon
Length of Visible Light
Length of Day
Tomorrow will be .
, % of the Moon is Illuminated

Today's Extremes

State Highs State Lows

Community

WunderPhotos

Upload Photos

1,962,540 photos uploaded!

WunderBlog® & News

Nearby

Air Quality

  Air Quality AQ Index Pollutant
Not available.

Snow Depth

Station Depth Elevation

Earthquake Activity

City Distance Mag. Time & Date
Minimum magnitude displayed is 2.5.

Earthquake Activity

City Distance Mag. Time & Date
Minimum magnitude displayed is 2.5.

Coastal Water Temperatures

Place Temperature

Stations

Nearby Weather Stations

Station Location Temp. Windchill Dew Point Humidity Wind Precip. Elev Updated Type
                   

Watches & Warnings

There are currently no watches in effect.